Location: Knowlton
(51.2333°N, 1.2667°E)
Time: 10:31:09
(UTC+00:00)

Resurs 01 Rocket - Pass Details

Date: 18 April 2021
Orbit: 634 x 644 km, 98.0° (Epoch: 05 May)

Event Time Altitude Azimuth Distance (km) Brightness Sun altitude
Exits shadow 20:50:19 12° 187° (S) 1,920 3.7 -16.0°
Maximum altitude 20:54:18 48° 261° (W) 852 2.5 -16.5°
Drops below altitude 10° 20:58:38 10° 336° (NNW) 2,054 5.3 -17.0°
Sets 21:00:56 0° 342° (NNW) 2,968 6.2 -17.2°
